Regional Weather Roundup
Issued by NWS

Home | Current Version | Previous Version | Text Only | Print | Product List | Glossary Off
Versions: 1 2 3 4 5 6 7 8 9 10 11 12 13 14 15 16 17 18 19 20 21 22 23 24 25 26 27 28 29 30 31 32 33 34 35 36 37 38 39 40 41 42 43 44 45 46 47 48 49 50

000
ASUS43 KFSD 242002
RWRSD

WEATHER ROUNDUP FOR SOUTH DAKOTA
NATIONAL WEATHER SERVICE SIOUX FALLS SD
300 PM CDT WED MAY 24 2017

NOTE: "FAIR" INDICATES FEW OR NO CLOUDS BELOW 12,000 FEET WITH NO
SIGNIFICANT WEATHER AND/OR OBSTRUCTIONS TO VISIBILITY.


SDZ001>005-009-010-012>017-242100-
NORTHWEST AND NORTH CENTRAL SOUTH DAKOTA

CITY           SKY/WX    TMP DP  RH WIND       PRES   REMARKS
BUFFALO          N/A     73  41  31 SE24G33   29.39F
FAITH            N/A     68  38  33 S25G38    29.51F
MOBRIDGE       SUNNY     67  41  38 S20       29.57F
$$

SDZ012>016-024>037-041>051-057-063-072>074-242100-
SOUTHWEST AND SOUTH CENTRAL SOUTH DAKOTA

CITY           SKY/WX    TMP DP  RH WIND       PRES   REMARKS
RAPID CTY ARPT SUNNY     73  44  35 SE23G29   29.50F
PIERRE         SUNNY     66  41  40 SE21G26   29.61F
CUSTER         SUNNY     67  39  35 VRB6      29.60F
ELLSWORTH AFB  MOSUNNY   73  44  35 S22G29    29.48F
PHILIP         SUNNY     72  39  30 SE18G24   29.56F
PINE RIDGE     SUNNY     73  45  36 S20G25    29.55F
SPEARFISH      FAIR      73  50  43 CALM      29.47F
WINNER         FAIR      66  45  46 SE17      29.65F
$$

SDZ004>011-016>023-039-040-242100-
NORTHEAST SOUTH DAKOTA

CITY           SKY/WX    TMP DP  RH WIND       PRES   REMARKS
ABERDEEN       MOSUNNY   65  40  39 S15G21    29.65F
WATERTOWN      CLOUDY    59  44  57 SE9       29.70F
BROOKINGS      CLOUDY    58  44  60 SE7       29.72
SISSETON         N/A     61  46  57 SE12      29.70F
$$

SDZ017-020-022-023-036>040-048>070-242100-
SOUTHEAST SOUTH DAKOTA

CITY           SKY/WX    TMP DP  RH WIND       PRES   REMARKS
SIOUX FALLS    CLOUDY    62  47  57 E3        29.71F
HURON          PTSUNNY   62  45  53 SE12      29.68F
MITCHELL       PTSUNNY   63  45  51 S9        29.70F
YANKTON        CLOUDY    61  47  59 NE5       29.72F
$$

ABBREVIATIONS USED IN REMARKS
   TC - TEMPERATURE IN CELSIUS
  WCI - WIND CHILL INDEX
   HX - HEAT INDEX
  VSB - VISIBILITY




USA.gov is the U.S. government's official web portal to all federal, state and local government web resources and services.